This demonstration page uses our WeatherBlox Daily Observations layout. Learn more.

Left ArrowRight Arrow

41.86663, -103.66717

Hourly Observations for March 6, 2018

Temp ( °F °C ) Dew Point ( °F °C ) Humidity (%) Winds ( mph kmh ) Pressure ( in mb ) Visibility ( mi km ) Precip ( " mm )
12:53 am 00:53 Clear 27 -2.8 14 -10 58 58 WNW 14 22 30.10 1019 10 16 N/A
1:53 am 01:53 Clear 24 -4.4 13 -10.6 62 62 WNW 12 19 30.13 1020 10 16 N/A
2:53 am 02:53 Clear 24 -4.4 14 -10 65 65 WNW 10 17 30.14 1021 10 16 N/A
3:53 am 03:53 Clear 23 -5 15 -9.4 72 72 NW 10 17 30.16 1021 10 16 N/A
4:53 am 04:53 Partly Cloudy 25 -3.9 16 -8.9 69 69 NW 13 20 30.19 1022 10 16 N/A
5:53 am 05:53 Clear 24 -4.4 16 -8.9 71 71 WNW 13 20 30.22 1023 10 16 N/A
6:53 am 06:53 Sunny 25 -3.9 16 -8.9 69 69 WNW 12 19 30.24 1024 10 16 N/A
7:53 am 07:53 Sunny 30 -1.1 17 -8.3 58 58 WNW 20 31 30.26 1025 10 16 N/A
8:53 am 08:53 Sunny 34 1.1 18 -7.8 52 52 NW 32 52 30.27 1025 10 16 N/A
9:53 am 09:53 Sunny 37 2.8 15 -9.4 41 41 NNW 39 63 30.29 1026 10 16 N/A
10:53 am 10:53 Sunny 38 3.3 13 -10.6 36 36 NNW 38 61 30.29 1026 10 16 N/A
11:53 am 11:53 Sunny 40 4.4 12 -11.1 32 32 NNW 36 57 30.30 1026 10 16 N/A
12:53 pm 12:53 Mostly Cloudy 40 4.4 12 -11.1 32 32 NNW 32 52 30.29 1026 10 16 N/A
1:53 pm 13:53 Partly Cloudy 42 5.6 13 -10.6 30 30 NNW 30 48 30.30 1026 10 16 N/A
2:53 pm 14:53 Mostly Sunny 42 5.6 14 -10 32 32 NNW 26 43 30.31 1026 10 16 N/A
3:53 pm 15:53 Sunny 40 4.4 15 -9.4 36 36 N 25 41 30.31 1026 10 16 N/A
4:53 pm 16:53 Sunny 38 3.3 16 -8.9 41 41 N 20 31 30.32 1027 10 16 N/A
5:53 pm 17:53 Clear 33 0.6 16 -8.9 49 49 N 14 22 30.35 1028 10 16 N/A
6:53 pm 18:53 Clear 29 -1.7 15 -9.4 56 56 NNW 3 6 30.36 1028 10 16 N/A
7:53 pm 19:53 Clear 26 -3.3 16 -8.9 66 66 NW 5 7 30.36 1028 10 16 N/A
8:53 pm 20:53 Clear 24 -4.4 15 -9.4 68 68 WSW 7 11 30.35 1028 10 16 N/A
9:53 pm 21:53 Clear 23 -5 15 -9.4 72 72 NW 5 7 30.34 1028 10 16 N/A
10:53 pm 22:53 Clear 20 -6.7 14 -10 78 78 NW 6 9 30.34 1027 10 16 N/A
11:53 pm 23:53 Clear 20 -6.7 15 -9.4 81 81 N 6 9 30.33 1027 10 16 N/A

Powered by AerisWeather